Regional Weather Roundup
Issued by NWS

Home | Current Version | Previous Version | Graphics & Text | Print | Product List | Glossary On
Versions: 1 2 3 4 5 6 7 8 9 10 11 12 13 14 15 16 17 18 19 20 21 22 23 24 25 26 27
000
ASUS45 KTFX 261410
RWRMT
MONTANA REGIONAL WEATHER ROUNDUP
NATIONAL WEATHER SERVICE GREAT FALLS MT
800 AM MDT MON SEP 26 2016

NOTE: "FAIR" INDICATES FEW OR NO CLOUDS BELOW 12000 FEET WITH NO
SIGNIFICANT WEATHER AND/OR OBSTRUCTIONS TO VISIBILITY.

MTZ001>007-043-261500-
WEST OF THE DIVIDE

CITY           SKY/WX    TMP DP  RH WIND       PRES   REMARKS
KALISPELL      PTCLDY    35  35 100 CALM      30.38S
MISSOULA       PTCLDY    42  40  92 CALM      30.43R
BUTTE          CLOUDY    34  32  92 SE5       30.48R
MULLAN PASS    MOCLDY    49  39  68 S9        30.41S
ANACONDA         N/A     39  37  93 S6        30.45F
DEER LODGE       N/A     36  34  93 CALM      30.47S
EUREKA           N/A     37  37 100 CALM      30.36S
HAMILTON         N/A     45  39  81 S3        30.42S
LIBBY            N/A     36  36 100 CALM      30.36S
PLAINS           N/A     36  32  85 CALM      30.36
RONAN            N/A     37  34  89 CALM      30.37F
$$

MTZ008-052>055-261500-
SOUTHWEST MONTANA

CITY           SKY/WX    TMP DP  RH WIND       PRES   REMARKS
BOZEMAN        CLOUDY    42  38  85 CALM      30.43R
DILLON         CLOUDY    41  37  86 S7        30.45R
W YELLOWSTONE  CLOUDY    28  28 100 CALM      30.54R
ENNIS          CLEAR     37  36  93 CALM      30.50R
THREE FORKS      N/A     38  19  46 CALM      30.36S VSB 1
TWIN BRIDGES     N/A     39  33  79 SE2       30.38
$$

MTZ009-010-012-014-046-048-049-054-261500-
EAST SLOPES AND CENTRAL MONTANA

CITY           SKY/WX    TMP DP  RH WIND       PRES   REMARKS
CUT BANK       MOCLDY    43  39  86 CALM      30.27F
GREAT FALLS    PTCLDY    49  41  74 S10       30.31S
MALMSTROM AFB  CLOUDY    48  43  83 SW10      30.30F
HELENA         CLEAR     46  41  82 CALM      30.38S
AUGUSTA          N/A     46  39  77 S3        30.32S
BOWMANS CRNR     N/A     45  39  82 S13       30.31F
CHOTEAU          N/A     48  41  76 S8        30.31S
CONRAD           N/A     41  41 100 CALM      30.27S
FAIRFIELD        N/A     47  41  78 SW12      30.30S
POWER            N/A     43  40  89 S3        30.30F
RAYNESFORD       N/A     51  41  69 SE3       30.32F
$$

MTZ011-013-016-021-045-047-050-051-261500-
NORTH CENTRAL MONTANA

CITY           SKY/WX    TMP DP  RH WIND       PRES   REMARKS
HAVRE          CLOUDY    44  41  89 SW10      30.26S
LEWISTOWN      CLOUDY    43  39  86 E3        30.33F
N BAR RANCH      N/A     48  41  76 W7        30.36R
CHINOOK          N/A     39  39 100 CALM      30.26S
DENTON           N/A     44  41  88 S10       30.28S
GEYSER           N/A     46  39  77 S3        30.32S
GRASS RANGE      N/A     51  42  72 SW12      30.29S
JUDITH GAP       N/A     47  40  79 W8        30.35S
ROY              N/A     50  43  78 MISG      30.28S
STANFORD         N/A     48  41  76 W3        30.34S
WINIFRED         N/A     50  42  74 MISG      30.30F
$$

MTZ017>020-022>027-061-062-261500-
NORTHEAST MONTANA

CITY           SKY/WX    TMP DP  RH WIND       PRES   REMARKS
GLASGOW        CLEAR     39  37  92 NW9       30.25R
JORDAN           N/A     45  42  89 W7        30.26S
SIDNEY         SUNNY     40  39  97 CALM      30.23R
WOLF POINT     CLEAR     40  38  93 SW7       30.25R
PLENTYWOOD       N/A     39  34  81 W6        30.22R
POPLAR           N/A     39  36  87 CALM      30.25R
SCOBEY           N/A     34  27  76 CALM      30.20R
$$

MTZ028>42-056>058-261500-
SOUTHCENTRAL AND SOUTHEAST MONTANA

CITY           SKY/WX    TMP DP  RH WIND       PRES   REMARKS
BAKER          SUNNY     41  38  89 CALM      30.25R
BILLINGS       PTCLDY    49  42  77 SW14      30.35S
LIVINGSTON     CLOUDY    46  39  76 NW14      30.39R
MILES CITY     SUNNY     46  41  82 W7        30.27R
BIG TIMBER     CLEAR     52  41  66 NW9       30.40R
EKALAKA          N/A     50  38  63 SW5       30.22
FORSYTH          N/A     48  43  81 W7        30.30R
HARLOWTON        N/A     46  41  82 W9        30.36S
LAUREL           N/A     47  39  73 S5        30.31R
ROUNDUP          N/A     47  39  73 SW2       30.22R
$$

REGIONAL REPORTS...DAKOTAS

CITY           SKY/WX    TMP DP  RH WIND       PRES   REMARKS
WILLISTON      SUNNY     42  36  79 S7        30.21R
MINOT          SUNNY     49  35  58 W14       30.13R
DICKINSON      SUNNY     44  40  85 W9        30.20R
CROSBY           N/A     46  34  61 NW9       30.21R
WATFORD CITY     N/A     41  39  93 SW5       30.21R
BISMARCK       SUNNY     46  35  65 W10       30.18R
GRAND FORKS    MOSUNNY   51  39  63 W20       29.94S
FARGO          SUNNY     53  37  54 W20       29.99R
BUFFALO SD       N/A     46  40  79 W7        30.18S
RAPID CITY     SUNNY     51  39  63 W5        30.28R
$$

REGIONAL REPORTS...WYOMING/IDAHO/WASHINGTON

CITY           SKY/WX    TMP DP  RH WIND       PRES   REMARKS
GILLETTE       CLOUDY    51  41  68 W14       30.34S
SHERIDAN       CLOUDY    54  43  66 W8        30.36R
BUFFALO WY     CLEAR     54  39  57 W8        30.39R
CODY           CLOUDY    43  39  87 S6        30.42S
YELLOWSTONE LA   N/A     29  28  96 CALM      30.57R
IDAHO FALLS    CLOUDY    37  35  92 NW5       30.46R
SALMON         CLOUDY    36  34  93 CALM      30.48R
BOISE          CLEAR     54  40  59 SE13      30.33R
SPOKANE        MOCLDY    51  43  74 NE9       30.28F
$$

REGIONAL REPORTS...ALBERTA

CITY           SKY/WX    TMP DP  RH WIND       PRES   REMARKS
EDMONTON       CLEAR     46  37  71 SW2       30.08S
CALGARY        MOCLDY    48  39  71 SW8       30.17S
LETHBRIDGE     MOCLDY    50  43  76 SW14      30.20F
MEDICINE HAT   MOCLDY    41  39  93 S3        30.21S
WATERTON GATE    N/A     55  39  54 SW22G31     N/A
CARDSTON         N/A     48  41  76 SW6         N/A
MILK RIVER       N/A     43  39  87 W5          N/A
$$

REGIONAL REPORTS...SASKATCHEWAN

CITY           SKY/WX    TMP DP  RH WIND       PRES   REMARKS
SWIFT CURRENT  CLEAR     43  36  75 SW10      30.19S
REGINA         CLEAR     36  34  93 W5        30.18S
SASKATOON      CLEAR     36  36 100 SW7       30.18S WCI  30
CYPRESS HILLS    N/A     50  32  50 W1          N/A
ROCKGLEN         N/A     45  32  61 SW1         N/A
ASSINIBOIA       N/A     36  34  93 S6          N/A  WCI  31
$$




USA.gov is the U.S. government's official web portal to all federal, state and local government web resources and services.